Probability
11 13 14 14 13 11 10 9 7 5 3 1 1 3 4 5 5 4 3 3 3 4 6 6 6 5 5 5 6 6 6 6 3 2 3 5 6 5 4 4 3 1 0
10 11 12 13 13 11 9 7 6 5 4 1 0 1 2 3 4 3 3 3 3 4 6 6 6 6 5 6 6 5 6 6 5 3 3 5 6 6 6 5 3 1 0
10 10 10 12 13 11 8 6 6 5 3 1 0 0 0 1 1 1 2 3 3 4 5 6 6 6 6 6 6 5 5 6 6 4 3 5 7 6 6 6 3 1 0
10 9 10 11 13 11 8 7 6 4 1 0 0 0 0 0 0 0 1 1 3 3 4 5 6 6 6 6 6 6 6 6 6 5 5 6 6 6 6 5 3 1 1
9 8 8 10 12 11 9 8 5 2 1 0 0 0 0 0 0 0 0 1 2 3 3 4 5 4 4 4 4 5 6 6 6 6 5 4 5 6 6 4 2 1 0
7 6 6 7 8 8 8 7 4 1 0 0 0 0 0 0 0 0 0 1 2 3 3 3 4 3 2 2 2 2 3 4 5 5 4 3 4 6 7 5 2 0 0
5 5 4 4 5 5 5 4 3 1 0 0 0 0 0 0 0 0 0 0 2 3 3 3 3 3 3 2 1 1 2 2 3 3 2 2 5 8 8 7 3 1 0
5 5 4 3 3 3 3 3 3 2 0 0 0 0 0 0 0 0 0 1 2 3 3 3 3 3 3 2 2 2 2 2 1 2 2 2 4 6 7 6 2 0 0
5 5 4 3 3 3 3 3 3 1 0 0 0 0 0 0 0 0 0 1 2 3 4 4 3 2 1 1 3 3 3 3 1 1 1 1 1 2 4 3 1 0 0
2 4 4 4 3 3 3 3 2 1 0 0 0 0 0 0 0 0 0 0 1 3 4 4 3 2 1 1 2 3 3 3 2 1 0 0 0 0 1 1 1 0 0
1 3 4 3 3 3 2 1 1 0 0 0 0 0 0 0 0 0 0 0 1 2 3 4 2 1 0 0 1 2 2 3 3 2 0 0 0 0 0 0 0 0 0
2 3 3 3 3 2 1 0 0 0 0 0 0 0 0 0 0 0 0 0 1 1 1 2 1 0 0 0 0 1 1 1 2 1 0 0 0 0 0 0 0 0 0
3 3 3 2 1 1 0 0 0 0 0 0 0 0 0 0 0 0 0 0 0 0 0 0 0 0 0 0 0 0 0 0 0 0 0 0 0 0 0 0 0 0 0
3 3 2 1 0 0 0 0 0 0 0 0 0 0 0 0 0 0 0 0 0 0 0 0 0 0 0 0 0 0 0 0 0 0 0 0 0 0 0 0 0 0 0
1 2 1 0 0 0 0 0 0 0 0 0 0 0 0 0 0 0 0 0 0 0 0 0 0 0 0 0 0 0 0 0 0 0 0 0 0 0 0 0 0 0 0
0 0 0 0 0 0 0 0 0 0 0 0 0 0 0 0 0 0 0 0 0 0 0 0 0 0 0 0 0 0 0 0 0 0 0 0 0 0 0 0 0 0 0
0 0 0 0 0 0 0 0 0 0 0 0 0 0 0 0 0 0 0 0 0 0 0 0 0 0 0 0 0 0 0 0 0 0 0 0 0 0 0 0 0 0 0
0 0 0 0 0 0 0 0 0 0 0 0 0 0 0 0 0 0 0 0 0 0 0 0 0 0 0 0 0 0 0 0 0 0 0 0 0 0 0 0 0 0 0
0 0 0 0 0 0 0 0 0 0 0 0 0 0 0 0 0 0 0 0 0 0 0 0 0 0 0 0 0 0 0 0 0 0 0 0 0 0 0 0 0 0 0
0 0 0 0 0 0 0 0 0 0 0 0 0 0 0 0 0 0 0 0 0 0 0 0 0 0 0 0 0 0 0 0 0 0 0 0 0 0 0 0 0 0 0
0 0 0 0 0 0 0 0 0 0 0 0 0 0 0 0 0 0 0 0 0 0 0 0 0 0 0 0 0 0 0 0 0 0 0 0 0 0 0 0 0 0 0
0 0 0 0 0 0 0 0 0 0 0 0 0 0 0 0 0 0 0 0 0 0 0 0 0 0 0 0 0 0 0 0 0 0 0 0 0 0 0 0 0 0 0
0 0 0 0 0 0 0 0 0 0 0 0 0 0 0 0 0 0 0 0 0 0 0 0 0 0 0 0 0 0 0 0 0 0 0 0 0 0 0 0 0 0 0
0 0 0 0 0 0 0 0 0 0 0 0 0 0 0 0 0 0 0 0 0 0 0 0 0 0 0 0 0 0 0 0 0 0 0 0 0 0 0 0 0 0 0
0 0 0 0 0 0 0 0 0 0 0 0 0 0 0 0 0 0 0 0 0 0 0 0 0 0 0 0 0 0 0 0 0 0 0 0 0 0 0 0 0 0 0
0 0 0 0 0 0 0 0 0 0 0 0 0 0 0 0 0 0 0 0 0 0 0 0 0 0 0 0 0 0 0 0 0 0 0 0 0 0 0 0 0 0 0
Wind_Speed
1 1 1 1 1 1 1 1 1 1 2 3 3 3 4 4 4 4 4 4 5 5 5 6 6 7 6 6 6 6 6 6 8 8 7 6 6 7 5 7 7 7 7
1 0 1 0 1 1 1 1 1 2 3 3 3 3 4 4 4 4 5 4 5 5 6 6 7 6 6 6 5 6 6 7 8 9 7 6 7 7 6 7 7 7 6
1 0 1 0 0 1 1 2 2 2 2 3 3 3 4 4 4 4 4 5 5 6 6 7 7 7 7 6 6 6 6 6 6 7 8 6 6 5 6 7 7 6 7
1 1 0 0 1 1 2 2 2 2 2 3 3 4 4 4 4 4 5 5 6 6 6 6 6 6 6 7 6 7 7 7 7 7 7 6 5 5 5 5 6 5 6
1 2 1 1 1 2 2 2 2 2 3 3 3 3 3 3 3 5 6 6 6 6 6 6 5 4 5 6 6 7 7 6 6 6 6 6 5 5 5 5 6 6 6
1 2 2 1 2 2 2 2 2 2 3 3 3 3 3 3 3 4 6 6 6 6 5 5 5 4 3 4 6 7 8 8 7 7 7 7 6 6 5 6 6 6 6
1 2 2 2 2 2 2 2 2 2 3 3 3 3 3 3 3 4 6 6 6 5 5 5 5 5 5 6 5 6 6 6 7 8 9 9 8 7 7 8 6 7 7
1 2 3 3 2 2 2 2 2 2 2 3 3 3 3 3 3 4 6 5 4 4 4 4 5 6 6 7 8 7 7 6 5 6 7 9 9 7 7 8 8 8 8
1 2 3 3 3 2 2 2 2 2 2 2 3 3 3 3 4 4 7 5 3 3 3 3 4 5 7 8 8 7 8 7 5 5 7 9 9 9 8 7 7 7 7
2 3 3 3 3 2 2 2 2 2 2 2 2 3 3 4 4 5 7 4 4 4 3 2 4 5 6 7 7 7 8 8 9 8 6 6 7 6 7 6 6 6 6
2 2 2 2 2 2 2 2 2 2 2 2 3 2 2 3 4 5 6 4 5 5 5 4 4 4 5 6 7 6 7 9 9 8 6 6 5 4 4 4 4 5 6
1 2 2 2 2 2 2 2 2 2 2 2 2 3 2 3 4 4 3 4 6 5 5 5 5 5 6 7 5 5 8 8 6 6 6 6 6 6 5 6 6 6 6
0 1 2 2 2 2 3 3 2 2 3 3 3 3 4 4 3 2 0 1 3 4 4 4 5 5 7 4 3 5 6 5 5 6 6 6 6 6 6 5 6 5 6
1 1 1 1 2 3 2 2 3 3 3 4 4 4 4 4 5 5 4 3 2 3 4 3 4 5 4 4 3 3 4 5 6 6 7 7 6 6 6 5 6 6 5
1 1 0 1 2 2 3 3 3 4 4 4 4 5 5 5 6 6 6 6 6 6 7 5 5 5 5 5 5 6 6 6 6 6 7 7 7 7 6 6 5 6 6
1 1 0 1 1 1 1 2 5 3 4 4 4 4 4 5 4 5 5 5 6 7 6 5 5 6 7 6 6 6 6 6 7 7 7 7 7 7 7 6 6 6 6
1 1 0 0 0 1 1 1 1 3 3 3 3 3 3 4 4 4 5 5 5 5 4 5 6 6 6 6 6 6 6 7 7 7 7 7 7 7 7 7 6 6 6
2 2 1 0 1 1 1 1 1 2 2 2 3 3 1 1 2 3 6 6 3 3 5 6 6 6 6 7 7 7 6 7 6 7 7 7 7 7 7 6 6 7 7
1 1 1 0 0 0 1 1 1 2 3 3 2 3 2 2 3 2 4 5 6 6 6 6 6 7 7 7 7 7 7 7 7 7 6 7 7 7 6 6 6 7 7
2 1 1 1 1 1 1 1 2 2 2 3 3 3 2 2 3 4 4 5 5 6 6 6 6 7 7 7 7 7 7 7 7 7 7 6 6 6 7 7 7 6 6
2 3 3 2 1 1 1 2 2 2 3 3 3 4 5 4 4 5 5 5 6 6 6 6 6 6 7 7 7 8 8 7 7 8 7 7 7 7 6 6 7 6 6
1 1 1 1 0 1 1 1 2 2 2 2 2 2 1 2 4 4 5 5 5 5 5 5 6 6 6 7 7 7 8 8 8 8 8 7 7 7 7 7 7 7 7
2 1 1 0 0 1 1 1 1 1 2 2 2 2 2 3 3 4 4 4 4 4 4 5 5 6 7 6 6 6 7 8 8 8 8 8 7 7 6 7 8 7 7
2 2 1 1 1 1 1 1 1 1 2 2 2 2 3 3 3 4 3 3 3 4 4 4 5 7 9 8 6 6 7 8 9 8 9 8 7 7 7 6 7 8 7
2 2 2 1 1 1 1 1 1 1 1 1 2 2 2 2 3 3 3 3 3 4 4 4 4 6 8 9 9 9 9 9 8 9 8 6 7 7 7 8 7 7 7
2 2 2 1 1 1 1 1 1 1 1 1 1 1 2 2 2 2 2 3 3 3 4 4 6 7 8 7 8 8 7 8 9 10 8 6 7 7 8 6 8 7 7
Wind_Direction
127 145 152 173 188 211 221 253 296 305 290 282 284 284 287 290 288 286 293 293 288 293 295 293 290 293 290 284 276 276 273 271 276 280 279 277 272 275 276 271 264 256 239
75 87 134 168 208 241 262 294 294 295 293 298 298 292 290 291 288 288 292 294 295 297 298 296 294 292 286 282 284 284 283 279 276 281 282 278 269 266 266 269 270 264 263
34 42 111 169 241 275 294 294 297 302 306 309 304 292 292 294 293 291 294 296 298 300 300 297 295 294 291 292 290 289 287 282 277 275 277 277 273 271 276 276 275 275 271
15 345 26 273 271 273 286 298 304 306 307 307 301 299 298 298 302 304 306 304 301 302 299 295 295 297 296 299 293 291 292 291 283 277 278 280 276 275 277 280 280 273 273
352 342 331 306 291 291 303 312 311 309 305 303 299 302 303 301 328 327 314 306 302 302 302 303 300 299 301 298 302 307 301 294 293 289 285 286 289 297 289 289 289 288 279
338 326 326 335 333 326 324 323 318 316 312 309 311 312 314 332 8 329 309 303 301 303 309 312 303 286 307 283 283 287 290 292 302 298 294 298 298 296 300 291 291 289 291
335 331 335 345 345 340 342 347 338 323 322 317 318 320 319 350 347 316 309 298 300 309 317 318 318 345 335 331 312 279 275 261 264 285 295 298 299 301 299 289 283 282 286
341 339 333 333 345 352 4 7 355 343 334 331 335 334 333 5 9 332 320 290 305 313 319 330 331 336 0 339 322 319 313 308 289 279 289 290 293 298 289 282 281 278 273
322 324 326 330 344 357 9 358 350 343 342 340 345 348 349 13 20 349 323 304 319 324 335 354 344 341 14 342 321 320 318 317 297 278 278 277 277 271 272 283 285 286 285
334 331 336 349 355 354 351 338 349 342 339 336 3 356 1 10 29 3 333 320 336 331 342 358 56 8 357 339 325 327 327 328 321 311 292 272 269 258 233 257 284 287 290
344 346 5 14 3 4 1 356 351 345 353 344 349 351 11 18 42 23 353 336 340 337 343 344 28 28 338 319 311 324 326 313 308 312 314 321 323 317 304 296 289 283 284
13 27 36 24 10 39 34 14 3 351 347 342 347 351 24 43 38 34 12 345 332 335 337 343 10 2 318 299 310 335 317 306 317 329 333 335 332 327 325 318 304 285 274
46 58 46 42 29 32 21 6 352 346 348 354 359 5 17 29 53 82 110 298 300 316 334 351 332 309 305 303 308 305 305 324 335 332 331 330 328 325 317 310 306 295 280
123 79 77 61 46 41 9 360 358 0 359 358 0 358 4 16 13 3 349 344 315 308 318 299 251 259 282 322 333 332 342 349 337 333 334 332 330 327 325 325 318 316 305
137 127 93 67 60 40 29 19 8 31 18 354 357 358 356 2 15 357 342 351 348 348 327 331 348 355 357 0 360 0 356 350 345 344 339 337 337 337 336 335 326 320 315
170 157 114 65 63 36 64 80 61 66 66 57 27 1 25 29 2 352 349 341 330 321 322 356 359 359 358 356 356 356 356 355 349 343 342 341 339 339 338 335 330 328 325
174 161 231 14 351 1 22 14 74 112 115 97 79 45 23 6 358 344 325 314 299 304 347 6 2 1 358 356 355 352 351 353 347 345 346 343 341 339 337 336 336 335 335
174 151 207 214 352 12 10 350 353 6 39 83 120 126 109 360 341 324 313 315 0 14 9 6 4 359 358 356 354 351 349 348 349 346 345 343 341 339 338 337 339 340 335
178 153 152 30 334 347 342 334 6 17 6 12 44 106 158 201 202 290 321 359 10 9 7 5 3 359 357 355 354 352 348 346 347 343 344 343 341 338 338 337 337 337 329
142 68 312 274 288 316 334 344 1 6 6 13 16 19 10 346 13 24 19 12 7 6 3 1 1 358 355 352 351 350 348 347 346 345 345 343 341 337 336 336 336 335 336
163 147 190 238 276 314 333 344 350 356 3 12 29 37 344 342 8 13 13 13 9 4 3 357 355 357 357 351 347 348 349 348 350 347 344 343 341 340 337 336 335 337 340
202 174 201 253 305 325 326 333 337 355 8 11 33 88 165 335 11 11 14 12 8 5 5 357 355 0 358 350 347 345 348 349 349 344 339 338 338 342 343 343 343 346 346
219 209 210 201 234 187 256 289 323 357 10 17 15 15 28 21 20 16 10 6 5 6 5 2 359 1 359 352 348 348 350 347 341 337 334 334 337 340 341 344 345 347 350
209 208 220 204 221 244 266 290 321 350 9 12 9 9 14 18 17 18 7 5 4 7 8 4 1 0 359 357 353 -0 4 349 334 330 332 330 332 335 337 341 344 348 349
215 210 220 230 239 248 261 273 289 324 2 4 358 4 12 14 13 14 12 10 3 8 7 4 2 4 5 7 5 4 358 340 330 326 323 326 332 336 339 344 349 351 353
221 212 227 240 253 272 271 272 276 300 319 326 348 4 2 4 5 8 13 9 0 3 0 5 7 7 6 7 8 357 345 337 332 323 317 330 342 350 348 346 350 353 360